map of SDJ home
SDJ - Airport
Location
City:  Sendai, Miyagi, Japan
Near (Alt.):Natori
Name:Sendai Airport
ICAO:RJSS
IATA:SDJ

Details
Type:Airport (Aerodrome, Airfield)
Use:Public/Civil
Latitude:3808'23"N (38.139722)
Longitude:14055'01"E (140.916944)
Datum:WGS 1984
Elevation:15 ft (5 m)
Variation:8.19W (WMM2015v2 magnetic declination)
-0.06 annual change
Runways:2
Longest:9842 × 150 ft (3000 × 45.5 m), paved

Time
Time Zone:UTC+9
Local Time:

Weather
METAR:RJSS 041228Z 30018G38KT 9999 FEW030 02/M09 Q1017 RMK 1CU030 A3004
TAF:RJSS 041112Z 0412/0518 29012KT 9999 FEW030
TEMPO 0412/0414 29020G30KT
BECMG 0503/0506 23006KT

Related Locations
Nearby:
Farthest:SSMT: 11610 mi / 18684 km
Mostardas, RS, BR

Find:

   beyond  
but within

Other Information
Maps:
NOTAMs:
Links:
Sources:

  
  • flag of Japan
  • flag of Miyagi
  • flag of Sendai
  

Sectional Chart

Flight Planning
at skyvector.com

Satellite Image

Google Maps Satellite view

 

Copyright © 2004-2019 Karl L. Swartz. All rights reserved.
The Great Circle Mapper name and logo are trademarks of the Great Circle Mapper.
All other trademarks mentioned herein belong to their respective owners.
Please see credits for attibutions and further copyright information.

  Follow gcmap on Facebook Follow gcmap on Twitter GCmap on LinkedIn

hCard Microformat

Geo Microformat